Weather in Uyuk

Russia / Tyva Republic     52°04′37″N   94°01′51″E
temp.,
°C
wind,
m/s
gust,
m/s
humid.,
%
clouds,
%
prec.,
mm/h
press.,
hPa
HPBL,
m
5 march, fri
fri501:00−17se12842 0.0 103220
04:00−17se229113 0.0 103124
07:00−18se229346 0.0 103025
10:00−12se138449 0.0 1028226
13:00−8ese247475 0.0 1025453
16:00−8se1270100 0.0 1023346
19:00−10sw1183100 0.0 102721
22:00−11se1192100 0.1 103022
6 march, sat
sat601:00−13sw0198100 0.4 103420
04:00−14se229369 0.0 103424
07:00−14se229284 0.1 103535
10:00−10ese2286100 0.0 1032224
13:00−7ese2380100 0.0 1029426
16:00−7se2380100 0.0 1025309
19:00−12se2280100 0.0 102721
22:00−12sse1278100 0.0 102722
7 march, sun
sun701:00−13sse128198 0.0 102721
04:00−15se228489 0.0 102621
07:00−16sse128685 0.0 102720
10:00−10ese118590 0.0 1026166
13:00−7e127995 0.0 1025407
16:00−6e1281100 0.0 1024302
19:00−9se1186100 0.0 102621
22:00−12s0182100 0.0 102821
8 march, mon
mon801:00−13sse117779 0.0 102921
04:00−15se12773 0.0 102920
07:00−15se118539 0.0 103120
10:00−9e128593 0.0 1028150
13:00−5e138168 0.0 1025354
16:00−4ese237719 0.0 1023337
19:00−11sse227810 0.0 102421
22:00−12sse12752 0.0 102521
9 march, tue
tue901:00−12sse118149 0.0 102521
04:00−12se1184100 0.0 102621
07:00−13w1188100 0.0 102920
10:00−9nnw1184100 0.0 1029142
13:00−5ene128883 0.0 1028308
16:00−3e118470 0.0 1027292
19:00−10se228851 0.0 102921
22:00−10se117797 0.0 103021